map of ZAL home
ZAL - Airport
Location
City:  Valdivia, Los Ríos, Chile
Name:Pichoy Airport
ICAO:SCVD
IATA:ZAL

Details
Type:Airport (Aerodrome, Airfield)
Use:Public/Civil
Latitude:39°38'58"S (-39.649443)
Longitude:73°05'11"W (-73.086388)
Elevation:59 ft (18 m)
Variation:7.33°E (WMM2015 magnetic declination)
-0.12° annual change
Runways:1
Longest:6890 × 148 ft (2100 × 45 m), paved

Time
Time Zone:UTC-4 (DST-3)
Local Time:

Weather
METAR:SCVD 112300Z AUTO 22007KT 180V260 9000 FEW041 16/07 Q1022
TAF:SCVD 111039Z 1112/1200 33005KT 9999 BKN030 TN12/1112Z TX19/1119Z
BECMG 1113/1115 6000 -RA SCT015 BKN030
BECMG 1117/1119 28010KT 8000 -SHRA BKN025
BECMG 1120/1122 9999 NSW SCT040

Related Locations
Nearby:
Farthest:WUA: 12436 mi / 20014 km
Wuhai [Wuhai Regional], 15, CN

Find:

   beyond  
but within

Other Information
Maps:
NOTAMs:
Links:
Sources:

  
  • flag of Chile
  • flag of Los Ríos
  

Sectional Chart

Flight Planning
at skyvector.com

Satellite Image

Google Maps Satellite view

 

Copyright © 2004-2018 Karl L. Swartz. All rights reserved.
The Great Circle Mapper name and logo are trademarks of the Great Circle Mapper.
All other trademarks mentioned herein belong to their respective owners.
Please see credits for attibutions and further copyright information.

  Follow gcmap on Facebook Follow gcmap on Twitter Follow gcmap on Google+ GCmap on LinkedIn

hCard Microformat

Geo Microformat